Погода в Елецкой Лозовке

Россия / Липецкая область     52°15′09″N   39°10′14″E
темп.,
°C
ветер,
м/с
пор.,
м/с
влажн.,
%
обл.,
%
осадки,
мм/ч
давл.,
гПа
погр.,
м
20 июня, вс
вс2000:00+15в22860 0.0 102423
03:00+14вюв22900 0.0 102417
06:00+16в24850 0.0 1024130
09:00+22вюв35610 0.0 1024599
12:00+25вюв455010 0.0 10221078
15:00+26вюв4550100 0.0 10221214
18:00+25вюв3664100 0.0 1021472
21:00+19в3383100 0.0 102149
21 июня, пн
пн2100:00+18в3482100 0.0 102172
03:00+16в348753 0.0 102155
06:00+18в398272 0.0 1021207
09:00+24вюв586099 0.0 1020493
12:00+27вюв565288 0.0 1020814
15:00+29вюв564994 0.0 10201185
18:00+27вюв47634 0.0 1019470
21:00+21в34875 0.0 102066
22 июня, вт
вт2200:00+19вюв36890 0.0 102090
03:00+18в34900 0.0 102049
06:00+19в38840 0.0 1021205
09:00+26вюв47591 0.0 1021491
12:00+29вюв5649100 0.0 10211010
15:00+30вюв5651100 0.0 10201272
18:00+28в476342 0.0 1020398
21:00+23в347980 0.0 102062
23 июня, ср
ср2300:00+20в34833 0.0 102058
03:00+19всв388399 0.0 1020121
06:00+20св388314 0.0 1020174
09:00+26всв476363 0.0 1020476
12:00+30в4553100 0.0 1019897
15:00+31в4451100 0.0 10191216
18:00+29в356392 0.0 1019298
21:00+24всв2278100 0.0 102019
24 июня, чт
чт2400:00+22в1183100 0.0 102011
03:00+21всв228580 0.0 102020
06:00+23в238398 0.0 102190
09:00+27вюв226184 0.0 1020477
12:00+31ююв224670 0.0 10201233
15:00+32ююв114246 0.0 10202002
18:00+30вюв335735 0.0 1019487
21:00+24ю117223 0.0 102012